Regional Weather Roundup
Issued by NWS Northern Indiana

Home | Current Version | Previous Version | Graphics & Text | Print | Product List | Glossary On
Versions: 1 2 3 4 5 6 7 8 9 10 11 12 13 14 15 16 17 18 19 20 21 22 23 24 25 26 27 28 29 30 31 32 33 34 35 36 37 38 39 40 41 42 43 44 45 46 47 48 49 50
000
ASUS43 KIWX 232000
RWRIWX

KIWX WEATHER ROUNDUP
NATIONAL WEATHER SERVICE NORTHERN INDIANA
400 PM EDT SUN APR 23 2017

NOTE: "FAIR" INDICATES FEW OR NO CLOUDS BELOW 12,000 FEET WITH NO
SIGNIFICANT WEATHER AND/OR OBSTRUCTIONS TO VISIBILITY.

* THESE STATIONS ARE NOT UNDER NWS QUALITY CONTROL. THEY ALSO MAY NOT
  REPORT WEATHER SUCH AS PRECIPITATION OR FOG.

INZ001>027-232100-
NORTHERN INDIANA

CITY           SKY/WX    TMP DP  RH WIND       PRES   REMARKS
GARY*          SUNNY     66  14  13 NE7       30.07F
KNOX*          SUNNY    N/A N/A N/A NE7       30.05F
SOUTH BEND     SUNNY     67  32  27 VRB6      30.06F
GOSHEN         SUNNY     68  32  26 E9        30.05F
MONTICELLO*    SUNNY     68  29  23 NE7       30.04S
ANGOLA*        SUNNY     66  59  77 CALM      30.05F
FORT WAYNE     MOSUNNY   67  29  24 NE12      30.05F
PERU/GRISSOM   SUNNY     67  33  27 E8        30.04S

$$
INZ028>050-232100-
CENTRAL INDIANA

CITY           SKY/WX    TMP DP  RH WIND       PRES   REMARKS
LAFAYETTE      SUNNY     66  37  34 E9        30.04F
KOKOMO*        SUNNY     67  32  27 NE14      30.05F
MUNCIE*        CLOUDY    69  30  23 NE16G23   30.01F
INDIANAPOLIS   MOSUNNY   69  35  28 NE14G22   29.99F

$$
MIZ043>046-050>051-056>058-064>065-071>073-077>080-232100-
SOUTHWEST LOWER MICHIGAN

CITY           SKY/WX    TMP DP  RH WIND       PRES   REMARKS
BATTLE CREEK   SUNNY     68  26  20 W8        30.06F
BENTON HARBOR  SUNNY     64  25  22 NW6       30.07F
COLDWATER*     SUNNY     67  32  27 E7        30.05F
HILLSDALE*     SUNNY     66  32  28 N5        30.05S
HOLLAND        SUNNY     63  31  30 NW9       30.08F
GRAND RAPIDS   MOSUNNY   67  29  24 CALM      30.05F
KALAMAZOO      SUNNY     69  26  20 N8        30.06S
STURGIS*       SUNNY     67  31  26 NE6       30.04F
THREE RIVERS*  FAIR      68  29  23 NE5       30.05F

$$
OHZ001>008-015>018-024>025-232100-
NORTHWEST OHIO

CITY           SKY/WX    TMP DP  RH WIND       PRES   REMARKS
DEFIANCE       SUNNY     65  29  25 MISG      30.06F
FINDLAY        SUNNY     68  32  26 NE12      30.03F
TOLEDO EXPRESS SUNNY     65  26  23 VRB5      30.07S
TOLEDO METCALF SUNNY     66  34  30 N8        30.08F
LIMA           CLOUDY    67  30  25 NE12      30.02F

$$
AND FOR LAKE MICHIGAN COASTAL AND OPEN LAKE BUOY OBSERVATIONS

STATION/POSITION TEMP    WIND        PRES    VSBY  WAVE
                 AIR SEA DIR/SP/G                  HT/PER
                 (F)     (DEG/KT/KT) (MB)    (MI)  (FT/S)
CALUMET HARBOR    58      80/  7/  8 1017.8F
MICHIGAN CITY     54     360/  2/  2   N/A
BURNS HARBOR      56      60/  3/  4 1019.0F
4 MI NW BRIDGMAN  52 52  230/  2/  2 1019.0F         0

$$
&&



USA.gov is the U.S. government's official web portal to all federal, state and local government web resources and services.